Location: Fenton Hill Observtory
(35.8809°N, 106.6741°W)
Time: 05:51:43
(UTC-06:00)

OTV 5 (USA 277) - Visible Passes

Search period start: 21 July 2018 00:00
Search period end: 31 July 2018 00:00
Orbit: 312 x 321 km, 54.5° (Epoch: 05 July)

Date Brightness Start Highest point End Pass type
(mag) Time Alt. Az. Time Alt. Az. Time Alt. Az.
26 Jul ? 04:55:53 10° SE 04:56:27 10° SE 04:57:02 10° ESE visible
27 Jul ? 05:08:47 14° S 05:10:41 33° SE 05:13:09 10° ENE visible
28 Jul ? 05:23:00 15° SW 05:25:05 61° NW 05:27:44 10° NE visible
29 Jul ? 04:06:16 16° ESE 04:06:16 16° ESE 04:07:22 10° E visible
29 Jul ? 05:37:31 10° W 05:39:37 20° NW 05:41:43 10° NNE visible
30 Jul ? 04:20:20 45° ENE 04:20:20 45° ENE 04:22:23 10° NE visible
